Stations météo

réclame
Mon MeteoGroup
Berus, Allemagne (10704): Température de l'air & dewpoint: 09.09.2019 12:00:00 - 15.09.2019 12:00:00 (CEST)Berus, Allemagne (10704): Température de l'air 5cm & Température de l'air -5cm: 09.09.2019 12:00:00 - 15.09.2019 12:00:00 (CEST)Berus, Allemagne (10704): Température de l'air -20cm & Température de l'air -100cm: 09.09.2019 12:00:00 - 15.09.2019 12:00:00 (CEST)Berus, Allemagne (10704): Vitesse du vent & gusts: 09.09.2019 12:00:00 - 15.09.2019 12:00:00 (CEST)Berus, Allemagne (10704): Direction du vent: 09.09.2019 12:00:00 - 15.09.2019 12:00:00 (CEST)Berus, Allemagne (10704): reduced air pressure: 09.09.2019 12:00:00 - 15.09.2019 12:00:00 (CEST)Berus, Allemagne (10704): visibility: 09.09.2019 12:00:00 - 15.09.2019 12:00:00 (CEST)Berus, Allemagne (10704): Ensoleillement: 09.09.2019 12:00:00 - 15.09.2019 12:00:00 (CEST)Berus, Allemagne (10704): Quantités de précipitations: 09.09.2019 12:00:00 - 15.09.2019 12:00:00 (CEST)
Date & Time tt [°C] td [°C] tt 5cm [°C] tt -5cm [°C] tt -20cm [°C] tt -100cm [°C] ff [km/h] ff [knt] fx [km/h] fx [knt] dd ppp [hPa] vv [km] sd [min] rr [mm]
15.09.2019 12:00:00 21,3 11,6 26,3 23,3 17,4 18,3 5 3 13 7 NW 1024,8 54 60 0,0
15.09.2019 11:00:00 19,3 11,7 23,4 19,8 17,1 18,3 3 2 8 4 ESE 1024,9 51 60 0,0
15.09.2019 10:00:00 16,4 9,6 22,3 16,7 17,0 18,3 4 2 7 4 NE 1025,3 33 60 0,0
15.09.2019 09:00:00 14,3 9,6 17,6 14,0 17,2 18,3 5 3 9 5 NE 1025,7 16 60 0,0
15.09.2019 08:00:00 13,5 9,4 10,9 13,2 17,5 18,3 7 4 10 6 NNE 1025,8 37 21 0,0
15.09.2019 07:00:00 13,1 9,5 10,7 13,4 17,8 18,3 9 5 10 6 NNE 1025,6 36 0 0,0
15.09.2019 06:00:00 13,8 9,7 10,9 13,8 18,1 18,3 8 5 13 7 NE 1025,6 50 0 0,0
15.09.2019 05:00:00 13,8 10,1 11,5 14,3 18,4 18,3 11 6 14 8 NNE 1025,9 34 0 0,0
15.09.2019 04:00:00 14,5 10,1 12,1 14,8 18,7 18,3 11 6 16 9 NNE 1026,0 46 0 0,0
15.09.2019 03:00:00 14,8 10,3 12,5 15,3 19,1 18,3 14 8 17 9 NNE 1026,5 51 0 0,0
15.09.2019 02:00:00 14,9 10,6 13,1 15,8 19,5 18,3 14 8 18 10 NNE 1027,0 47 0 0,0
15.09.2019 01:00:00 15,3 10,8 13,3 16,4 19,9 18,3 13 7 16 9 NNE 1027,1 59 0 0,0
15.09.2019 00:00:00 15,9 11,0 12,9 17,2 20,3 18,3 9 5 15 8 NE 1027,2 51 0 0,0
14.09.2019 23:00:00 16,7 11,2 14,3 18,1 20,6 18,3 11 6 19 10 NE 1027,7 65 0 0,0
14.09.2019 22:00:00 17,4 11,4 15,6 19,2 21,0 18,3 14 8 22 12 NE 1027,9 67 0 0,0
14.09.2019 21:00:00 18,4 11,6 16,6 20,6 21,2 18,3 15 8 21 11 NE 1027,8 75 0 0,0
14.09.2019 20:00:00 19,6 11,5 17,7 22,4 21,3 18,3 12 6 21 11 NE 1027,3 63 35 0,0
14.09.2019 19:00:00 21,6 11,2 20,6 24,9 21,2 18,3 12 6 22 12 NE 1027,2 75 60 0,0
14.09.2019 18:00:00 22,8 11,1 25,6 27,3 20,7 18,3 13 7 24 13 NE 1026,9 59 60 0,0
14.09.2019 17:00:00 23,0 10,6 27,3 28,5 20,1 18,3 13 7 23 13 NNE 1027,3 48 60 0,0
14.09.2019 16:00:00 23,2 10,7 28,7 28,5 19,3 18,3 11 6 25 14 NE 1028,0 55 60 0,0
14.09.2019 15:00:00 22,7 11,5 28,1 27,5 18,4 18,3 15 8 29 16 NE 1028,5 75 60 0,0
14.09.2019 14:00:00 22,3 11,5 27,9 25,9 17,7 18,3 13 7 23 13 ENE 1029,3 69 60 0,0
14.09.2019 13:00:00 21,0 11,8 25,5 23,4 17,1 18,3 14 8 24 13 NE 1030,1 59 60 0,0
14.09.2019 12:00:00 19,0 12,3 23,4 20,7 16,6 18,3 15 8 24 13 NE 1030,9 75 60 0,0
14.09.2019 11:00:00 17,4 12,3 20,9 18,2 16,4 18,4 16 9 29 16 NE 1031,3 75 60 0,0
14.09.2019 10:00:00 15,8 11,9 18,1 16,2 16,3 18,4 22 12 31 17 NE 1031,4 62 60 0,0
14.09.2019 09:00:00 14,5 11,2 16,1 14,1 16,4 18,4 21 12 30 16 NE 1032,1 18 60 0,0
14.09.2019 08:00:00 13,6 11,2 12,6 13,2 16,6 18,4 18 10 26 14 NE 1032,0 36 20 0,0
14.09.2019 07:00:00 13,3 11,1 12,0 13,3 16,8 18,4 19 11 28 15 NE 1031,7 43 0 0,0
14.09.2019 06:00:00 13,6 11,4 12,2 13,7 17,0 18,4 18 10 24 13 NE 1031,4 41 0 0,0
14.09.2019 05:00:00 13,9 12,3 12,7 14,1 17,3 18,4 18 10 27 14 NE 1031,8 30 0 0,0
14.09.2019 04:00:00 14,3 12,4 13,0 14,3 17,5 18,4 19 11 29 15 NNE 1032,0 29 0 0,0
14.09.2019 03:00:00 14,7 12,5 13,2 14,6 17,7 18,4 20 11 25 14 NNE 1032,3 30 0 0,0
14.09.2019 02:00:00 14,8 12,2 13,5 15,0 18,0 18,4 17 9 24 13 NNE 1032,3 36 0 0,0
14.09.2019 01:00:00 15,2 12,2 13,8 15,5 18,3 18,4 17 9 22 12 NNE 1032,3 51 0 0,0
14.09.2019 00:00:00 16,3 12,5 14,7 16,1 18,5 18,4 16 9 26 14 NNE 1032,3 75 0 0,0
13.09.2019 23:00:00 16,4 13,2 15,0 16,8 18,7 18,4 14 8 18 10 NNE 1032,2 59 0 0,0
13.09.2019 22:00:00 17,9 12,7 16,2 17,6 18,9 18,4 11 6 16 9 N 1031,9 75 0 0,0
13.09.2019 21:00:00 18,6 13,1 17,0 18,8 19,0 18,4 6 4 11 6 WNW 1031,9 75 0 0,0
13.09.2019 20:00:00 19,0 13,7 17,8 19,4 19,0 18,4 5 3 6 3 SSW 1031,6 75 38 0,0
13.09.2019 19:00:00 20,0 12,4 18,0 20,4 18,9 18,4 4 2 9 5 NNE 1031,4 75 42 0,0
13.09.2019 18:00:00 20,3 12,8 22,2 21,7 18,8 18,4 4 2 15 8 N 1031,7 75 19 0,0
13.09.2019 17:00:00 19,9 13,2 21,5 21,4 18,5 18,5 7 4 14 7 NNW 1031,9 75 0 0,0
13.09.2019 16:00:00 19,4 12,9 21,1 22,0 18,2 18,5 9 5 16 9 NNE 1032,1 75 8 0,0
13.09.2019 15:00:00 18,8 12,7 21,5 21,4 17,9 18,5 8 4 16 9 N 1032,3 75 0 0,0
13.09.2019 14:00:00 18,7 13,4 20,8 20,7 17,7 18,5 6 3 17 9 W 1032,4 62 0 0,0
13.09.2019 13:00:00 17,8 13,5 19,0 19,9 17,4 18,5 10 5 19 10 WNW 1032,8 63 0 0,0
13.09.2019 12:00:00 17,7 14,2 18,5 19,5 17,1 18,5 9 5 18 10 WNW 1032,8 69 0 0,0
13.09.2019 11:00:00 18,4 14,2 20,1 19,6 16,8 18,5 12 6 21 11 W 1032,5 67 22 0,0
13.09.2019 10:00:00 17,4 14,5 18,5 17,4 16,7 18,5 10 5 17 9 SW 1032,4 67 2 0,0
13.09.2019 09:00:00 16,6 14,2 16,9 16,0 16,7 18,5 12 7 19 10 WSW 1032,0 66 0 0,0
13.09.2019 08:00:00 16,2 14,1 16,0 15,5 16,7 18,5 9 5 16 9 WSW 1032,0 66 0 0,0
13.09.2019 07:00:00 15,6 14,0 15,3 15,2 16,8 18,5 9 5 11 6 WSW 1031,9 40 0 0,0
13.09.2019 06:00:00 15,1 13,9 14,3 14,9 16,9 18,6 8 4 16 8 WSW 1031,5 36 0 0,0
13.09.2019 05:00:00 16,0 14,2 15,4 14,7 17,1 18,6 10 6 18 10 WNW 1031,4 52 0 0,0
13.09.2019 04:00:00 15,5 13,7 14,2 14,5 17,3 18,6 10 5 14 8 WNW 1031,3 50 0 0,0
13.09.2019 03:00:00 15,5 13,6 14,2 14,7 17,5 18,6 10 5 16 9 W 1031,4 61 0 0,0
13.09.2019 02:00:00 15,5 13,4 13,4 14,9 17,7 18,6 8 5 11 6 W 1031,3 69 0 0,0
13.09.2019 01:00:00 16,5 13,7 13,8 15,4 17,9 18,6 7 4 14 7 WNW 1031,1 75 0 0,0
13.09.2019 00:00:00 16,9 13,2 15,1 15,9 18,1 18,6 9 5 19 11 W 1031,4 75 0 0,0
12.09.2019 23:00:00 17,9 12,8 16,2 16,3 18,4 18,6 9 5 20 11 WNW 1031,2 75 0 0,0
12.09.2019 22:00:00 18,2 12,6 16,5 16,8 18,6 18,6 11 6 15 8 W 1031,0 74 0 0,0
12.09.2019 21:00:00 18,6 12,2 16,4 17,6 18,8 18,6 10 5 16 9 W 1030,9 75 0 0,0
12.09.2019 20:00:00 19,3 12,3 17,3 18,8 18,9 18,6 9 5 25 13 W 1030,2 75 40 0,0
12.09.2019 19:00:00 21,7 12,1 20,2 20,5 18,7 18,6 11 6 29 16 W 1029,7 70 60 0,0
12.09.2019 18:00:00 22,1 12,5 23,6 21,9 18,5 18,7 12 6 26 14 W 1029,5 65 38 0,0
12.09.2019 17:00:00 22,1 13,3 24,5 22,6 18,2 18,7 12 6 27 14 W 1029,8 67 32 0,0
12.09.2019 16:00:00 21,2 14,6 23,3 21,9 17,8 18,7 8 4 23 12 W 1030,2 75 13 0,0
12.09.2019 15:00:00 20,7 14,0 21,5 21,2 17,5 18,7 10 5 23 12 W 1030,2 73 3 0,0
12.09.2019 14:00:00 20,8 13,8 22,5 21,1 17,1 18,7 12 6 29 16 W 1030,3 67 4 0,0
12.09.2019 13:00:00 19,7 13,4 21,3 20,6 16,7 18,7 14 8 25 13 W 1030,5 59 8 0,0
12.09.2019 12:00:00 18,5 13,2 20,4 19,6 16,4 18,7 12 6 22 12 SW 1030,8 50 4 0,0
12.09.2019 11:00:00 17,4 12,5 19,0 17,9 16,1 18,8 13 7 24 13 SW 1030,5 67 1 0,0
12.09.2019 10:00:00 16,4 12,3 17,7 16,3 16,0 18,8 16 9 23 13 WSW 1030,1 64 0 0,0
12.09.2019 09:00:00 15,0 10,9 15,3 15,0 16,0 18,8 13 7 20 11 SW 1029,6 67 0 0,0
12.09.2019 08:00:00 14,2 11,3 13,1 14,5 16,1 18,8 14 8 23 12 WSW 1029,1 63 0 0,1
12.09.2019 07:00:00 13,7 12,0 13,1 14,3 16,2 18,8 14 8 21 12 WSW 1028,8 9 0 0,1
12.09.2019 06:00:00 14,7 10,7 13,9 14,3 16,3 18,8 12 7 19 10 W 1028,4 37 0 0,0
12.09.2019 05:00:00 15,5 8,7 14,7 14,3 16,4 18,8 10 5 21 12 W 1028,3 74 0 0,0
12.09.2019 04:00:00 16,0 8,1 15,3 14,3 16,5 18,9 15 8 27 14 WSW 1027,9 70 0 0,0
12.09.2019 03:00:00 16,2 8,2 15,5 14,5 16,6 18,9 18 10 27 14 WSW 1027,4 68 0 0,0
12.09.2019 02:00:00 16,0 8,3 15,3 14,7 16,7 18,9 14 8 19 10 SW 1027,4 65 0 0,0
12.09.2019 01:00:00 15,9 8,2 15,1 14,8 16,9 18,9 11 6 16 9 SW 1027,0 63 0 0,0
12.09.2019 00:00:00 15,6 8,4 14,7 14,9 17,0 18,9 11 6 16 9 SW 1026,9 75 0 0,0
11.09.2019 23:00:00 15,5 8,4 13,8 15,3 17,2 18,9 11 6 16 9 SW 1026,6 75 0 0,0
11.09.2019 22:00:00 16,8 8,1 16,0 15,8 17,4 18,9 11 6 16 8 WSW 1026,4 67 0 0,0
11.09.2019 21:00:00 16,2 8,5 15,1 16,1 17,5 19,0 11 6 16 9 SW 1025,9 63 0 0,0
11.09.2019 20:00:00 17,2 7,9 16,6 16,8 17,6 19,0 12 6 29 16 WSW 1025,2 75 0 0,0
11.09.2019 19:00:00 18,0 7,7 17,8 17,7 17,6 19,0 14 8 27 15 WSW 1024,9 59 3 0,0
11.09.2019 18:00:00 18,0 7,5 17,7 18,3 17,6 19,0 18 10 32 18 W 1024,7 64 0 0,0
11.09.2019 17:00:00 19,1 7,0 19,7 19,4 17,4 19,0 14 8 34 18 W 1024,2 66 0 0,0
11.09.2019 16:00:00 20,0 7,4 21,7 20,4 17,1 19,0 11 6 28 15 SW 1023,7 69 0 0,0
11.09.2019 15:00:00 19,0 7,7 20,1 20,1 16,7 19,0 16 9 26 14 SW 1023,9 56 0 0,0
11.09.2019 14:00:00 19,4 7,5 21,7 20,8 16,2 19,0 13 7 27 14 WSW 1023,8 72 9 0,0
11.09.2019 13:00:00 19,2 7,3 22,0 20,2 15,6 19,0 15 8 23 12 SW 1024,1 69 13 0,0
11.09.2019 12:00:00 17,8 8,6 20,4 19,7 15,0 19,1 10 5 15 8 SW 1024,3 54 31 0,0
11.09.2019 11:00:00 15,6 7,9 19,0 17,0 14,6 19,1 7 4 11 6 SSW 1024,4 39 53 0,0
11.09.2019 10:00:00 14,1 8,1 16,7 14,0 14,5 19,1 4 2 5 3 SSW 1024,1 39 60 0,0
11.09.2019 09:00:00 12,8 6,8 14,3 11,1 14,6 19,1 2 1 6 3 SW 1024,2 34 60 0,0
11.09.2019 08:00:00 10,2 6,0 6,8 9,8 14,8 19,1 4 2 7 4 SSE 1023,8 44 22 0,0
11.09.2019 07:00:00 9,8 4,9 6,7 10,0 15,1 19,2 6 3 9 5 E 1023,5 40 0 0,0
11.09.2019 06:00:00 11,5 5,7 8,2 10,2 15,4 19,2 6 3 10 5 E 1022,6 26 0 0,0
11.09.2019 05:00:00 10,4 5,6 7,4 10,6 15,7 19,2 6 3 8 4 NNE 1022,4 21 0 0,0
11.09.2019 04:00:00 11,2 5,1 8,1 11,0 16,0 19,2 7 4 9 5 NNE 1022,3 20 0 0,0
11.09.2019 03:00:00 12,4 4,8 8,2 11,4 16,4 19,2 6 4 9 5 NNE 1022,0 35 0 0,0
11.09.2019 02:00:00 12,5 3,7 8,1 11,9 16,7 19,2 6 4 8 4 NNE 1021,7 72 0 0,0
11.09.2019 01:00:00 13,0 3,7 9,1 12,4 17,1 19,3 7 4 9 5 NNE 1021,6 64 0 0,0
11.09.2019 00:00:00 12,9 3,9 8,3 13,0 17,5 19,3 9 5 10 5 NNE 1021,5 63 0 0,0
10.09.2019 23:00:00 13,8 3,9 8,9 13,7 17,9 19,3 9 5 11 6 NNE 1021,2 72 0 0,0
10.09.2019 22:00:00 14,5 3,3 10,8 14,6 18,2 19,3 10 5 15 8 NNE 1020,5 68 0 0,0
10.09.2019 21:00:00 15,3 2,9 11,5 15,8 18,5 19,3 9 5 14 8 N 1019,9 75 0 0,0
10.09.2019 20:00:00 16,0 3,1 13,0 17,5 18,6 19,4 10 5 15 8 NNW 1019,2 70 41 0,0
10.09.2019 19:00:00 17,2 3,7 16,5 19,7 18,6 19,3 11 6 18 10 N 1018,4 75 60 0,0
10.09.2019 18:00:00 18,8 4,3 21,1 21,3 18,4 19,4 6 3 16 9 NE 1017,9 67 44 0,0
10.09.2019 17:00:00 19,0 2,9 23,3 22,5 18,0 19,4 7 4 20 11 NE 1017,7 71 48 0,0
10.09.2019 16:00:00 19,7 4,4 24,3 22,9 17,5 19,4 6 3 19 11 NNW 1017,4 70 40 0,0
10.09.2019 15:00:00 19,2 3,9 24,0 23,1 16,8 19,4 9 5 19 11 ENE 1017,4 56 48 0,0
10.09.2019 14:00:00 17,5 3,1 23,8 22,7 16,1 19,4 8 4 21 12 NE 1017,8 75 53 0,0
10.09.2019 13:00:00 17,4 6,1 22,1 21,4 15,4 19,4 8 4 17 9 NE 1017,5 62 60 0,0
10.09.2019 12:00:00 16,2 6,5 21,4 19,1 14,8 19,5 7 4 15 8 NE 1017,9 75 60 0,0
10.09.2019 11:00:00 14,4 8,3 18,0 16,2 14,5 19,5 8 5 14 7 ENE 1017,7 40 60 0,0
10.09.2019 10:00:00 12,0 7,2 15,9 13,2 14,4 19,5 8 4 9 5 NNE 1017,5 46 60 0,0
10.09.2019 09:00:00 9,8 6,9 12,4 10,6 14,5 19,5 7 4 11 6 NNE 1017,5 27 60 0,0
10.09.2019 08:00:00 8,1 6,0 6,9 9,7 14,8 19,6 10 5 14 7 NNE 1017,1 20 8 0,0
10.09.2019 07:00:00 8,3 6,3 6,7 10,0 15,0 19,6 11 6 15 8 NNE 1016,6 17 0 0,0
10.09.2019 06:00:00 8,4 6,6 7,0 10,3 15,3 19,6 11 6 13 7 NNE 1016,4 12 0 0,0
10.09.2019 05:00:00 8,4 7,0 7,2 10,6 15,6 19,6 7 4 8 5 NNE 1016,2 19 0 0,0
10.09.2019 04:00:00 9,5 7,3 7,4 10,8 15,9 19,6 5 3 7 4 NE 1016,0 34 0 0,0
10.09.2019 03:00:00 9,8 7,1 7,0 11,2 16,2 19,7 5 3 9 5 E 1016,2 36 0 0,0
10.09.2019 02:00:00 10,3 7,1 7,2 11,8 16,5 19,7 5 3 10 5 ENE 1016,0 47 0 0,0
10.09.2019 01:00:00 10,8 6,3 8,5 12,4 16,8 19,7 6 3 7 4 NE 1016,0 51 0 0,0
10.09.2019 00:00:00 11,5 5,6 7,4 13,0 17,1 19,7 3 2 8 5 ENE 1015,8 63 0 0,0
09.09.2019 23:00:00 12,9 5,6 10,2 13,7 17,4 19,7 7 4 14 8 NW 1015,5 75 0 0,0
09.09.2019 22:00:00 12,6 5,4 10,0 14,4 17,7 19,7 5 3 8 4 SW 1015,5 68 0 0,0
09.09.2019 21:00:00 12,2 5,7 9,5 15,1 17,9 19,8 7 4 9 5 SW 1015,3 75 0 0,0
09.09.2019 20:00:00 12,5 6,7 10,9 16,6 18,0 19,8 8 4 13 7 SW 1015,0 66 7 0,0
09.09.2019 19:00:00 14,8 6,7 14,2 18,3 18,0 19,8 7 4 17 9 SSW 1014,5 69 48 0,0
09.09.2019 18:00:00 15,6 6,4 16,6 19,5 17,8 19,8 13 7 22 12 SSW 1014,4 63 59 0,0
09.09.2019 17:00:00 16,6 6,4 19,3 19,8 17,5 19,8 13 7 25 14 SW 1014,5 75 5 0,0
09.09.2019 16:00:00 16,8 6,5 19,4 20,9 17,1 19,8 12 7 23 12 SSW 1014,6 64 23 0,0
09.09.2019 15:00:00 15,3 7,4 16,8 20,3 16,6 19,8 12 6 24 13 SW 1015,4 69 30 0,0
09.09.2019 14:00:00 15,9 6,0 18,4 20,5 16,1 19,9 14 7 26 14 SW 1015,5 47 39 0,0
09.09.2019 13:00:00 14,1 7,4 16,0 17,6 15,7 19,9 7 4 21 12 WSW 1016,2 60 10 0,0
09.09.2019 12:00:00 14,6 7,0 18,7 17,8 15,3 19,9 9 5 20 11 W 1016,4 50 52 0,0

tt = Température de l'air
td = dewpoint
tt 5cm = Température de l'air 5cm
tt -5cm = Température de l'air -5cm
tt -20cm = Température de l'air -20cm
tt -100cm = Température de l'air -100cm
ff = Vitesse du vent
fx = gusts
dd = Direction du vent
ppp = reduced air pressure
vv = visibility
sd = Ensoleillement
rr = Quantités de précipitations

stations d'obs. à proximité